OBJECT C, 60205

Orbit data source: Space-Track

You're viewing an Uncataloged Satellite

Recently launched and/or uncataloged satellites may have evolving metadata. Metadata may include but not limited to: Owner, Maufacturer, Bus, Motor, and Mission.

OBJECT C, 60205 is a satellite owned by Teachers in Space (US) in SSO that was launched on Thu, 04 Jul 2024 UTC via an FIREFLY ALPHA launch vehicle from the Air Force Western Test Range (AFWTR). Unknown objects in Earth's orbit typically refer to objects detected orbiting the Earth but have not yet been identified or cataloged. These objects could be anything from previously untracked satellites, spent rocket stages, debris from satellite collisions, or even natural meteoroids temporarily captured by Earth's gravity.

Loading next visibility...
Identifier
60205, 2024-125C
Orbit
SSO
Country
Flag of USUS
Related business
None
Manufacturer
Quub
Mission
Operational spacecraft
Bus & Motor
CUBESAT 3U, Unknown motor
Mass
3 kg wet, 3 kg dry
Launch date (UTC)
2024-07-04 (1 year ago)
Launch vehicle
FIREFLY ALPHA
Launch site
Air Force Western Test Range (AFWTR)
Object type
Unknown
Shape & HBR
Unknown
Radar Cross Section
Small (<0.1 m²)

Expand to show TLE details & history
Last TLE update: 10 hours ago

TLE from 10 hours ago
0 OBJECT C
1 60205U 24125C   25258.54894205  .00044732  00000-0  84835-3 0  9997
2 60205  97.2642 111.9245 0014151 121.7790 238.4842 15.48084797 67194
Epoch: 2025-09-15T13:10Z
TLE epoch observation values (Epoch: 2025-09-15T13:10:28.593Z)
Latitude
0.00007°
Longitude
-80.44665°
Altitude
430.503 km
Speed
7.65 km/s
True Right ascension
07h 27m 41s
True Declination
0° 00' 00"
Sunlit
Object was in daylight at epoch
Visualization orbit readout
Latitude
Unknown
Longitude
Unknown
Altitude
Unknown
Speed
Unknown
Apparent Right ascension
Unknown
Apparent Declination
Unknown
Sunlit
N/A
Visualization observer readout
Local Sidereal Time
15:49:53
Azimuth
Unknown
Elevation
Unknown
Doppler factor
Unknown
Orbital elements
Apogee altitude
428.87 km
Perigee altitude
409.632 km
Semi-major axis
6,797.388 km
Eccentricity
0.00142
Inclination
97.2642°
RAAN
111.9245°
Arg. of periapsis
121.779°
True anomaly
238.34609°
Mean anomaly
238.4842°
Eccentric anomaly
238.41513°
Mean motion
3.87284 °/min
Orbital period
92.95 mins
BSTAR
0.00084835
Loading maneuver chart data...
Computing Atmospheric mass density...
Loading historical data...
Loading historical data...
Loading historical data...
Loading historical data...
Loading historical data...
Loading historical data...
Loading historical data...

Documentation

Showing up to 5 results
|